GFSNGP_850_spd_180.txt.gz
Wind_Speed
24 26 26 25 22 23 22 24 22 27 26 30 19 13 17 23 25 25 19 18 25 24 23 22 21 21 22 22 23 26 24 21 19 19 18 17 17 16 15 15 15 14 12 8
22 26 23 21 26 29 25 25 20 19 22 20 10 11 14 22 25 24 20 16 18 23 24 24 25 25 25 25 27 28 26 23 22 22 21 19 18 18 19 17 17 15 12 10
7 17 19 16 23 28 29 28 26 20 22 21 15 16 14 16 21 15 15 26 24 25 27 29 28 26 26 29 31 32 30 30 27 25 23 22 21 21 19 19 16 14 14 12
10 14 15 12 17 19 24 24 26 30 27 23 22 21 23 27 22 25 23 27 21 21 22 26 30 27 26 26 33 35 34 34 32 30 28 27 26 23 21 20 18 16 15 12
5 12 18 20 11 6 9 14 13 11 12 10 10 15 22 17 9 14 16 26 34 35 31 26 30 30 33 30 35 39 39 36 36 35 32 31 29 26 24 23 19 18 14 14
5 9 14 2 7 11 8 9 14 19 14 14 14 10 2 9 13 15 14 17 20 22 29 34 33 29 37 36 39 42 41 39 38 35 34 31 29 29 26 24 20 18 16 16
13 11 8 7 11 5 7 2 9 12 16 17 12 13 22 24 25 22 22 22 20 20 24 26 27 27 32 39 44 40 41 41 39 36 34 31 30 30 27 23 20 19 17 18
5 8 16 7 7 5 9 11 15 18 20 23 27 26 27 29 25 26 25 23 21 21 19 23 25 30 33 40 41 44 43 42 39 36 34 34 34 33 29 24 25 24 22 22
7 7 10 21 18 16 15 19 22 26 29 24 24 25 29 29 25 30 29 24 21 20 21 21 21 31 36 40 42 43 43 41 37 36 34 36 36 34 32 31 31 29 27 26
14 16 18 24 26 31 29 25 26 27 28 26 28 31 32 31 25 23 25 25 21 18 23 22 18 22 29 38 40 41 40 38 35 34 36 36 35 34 34 34 33 30 27 27
14 18 25 23 26 24 28 28 29 30 30 31 31 32 31 31 29 25 27 25 22 20 21 25 19 19 26 30 35 37 34 32 33 35 34 33 33 31 30 31 29 27 23 25
13 23 20 28 33 31 31 34 33 33 34 33 32 35 35 32 30 28 27 28 23 22 18 19 19 20 22 26 31 33 34 34 34 33 31 29 26 25 25 23 21 20 19 19
20 26 27 30 34 32 31 31 32 32 34 34 32 30 34 33 34 29 29 27 25 29 20 17 21 19 21 27 33 35 35 33 32 29 28 27 25 27 26 24 22 21 20 20
24 25 25 25 28 29 28 30 31 31 30 33 32 29 30 30 31 30 30 26 24 26 21 19 23 19 22 29 33 35 32 27 27 26 26 23 26 25 24 23 24 22 21 21
16 15 20 23 23 28 26 25 25 26 26 26 27 28 26 28 31 32 32 29 26 24 21 17 26 21 22 28 31 31 30 29 26 25 22 26 25 23 24 23 20 18 20 22
14 14 16 16 20 21 20 19 21 24 25 21 20 20 21 23 27 31 30 29 30 29 25 25 21 24 24 31 34 32 30 27 25 24 27 27 24 23 23 22 21 21 23 24
11 12 16 21 19 20 19 21 19 22 24 23 23 25 29 31 31 32 36 35 34 36 36 31 25 25 26 31 35 35 31 27 24 24 27 23 23 22 24 23 23 24 23 24
5 9 12 16 16 16 16 14 15 18 21 22 23 23 24 26 30 35 38 38 36 38 36 32 29 25 28 30 37 37 31 26 25 27 22 22 22 22 24 24 23 23 23 24
10 12 12 13 11 11 12 14 16 18 20 22 23 24 24 27 31 37 36 35 35 40 39 34 31 28 32 34 41 36 31 26 27 24 21 22 21 23 24 25 24 24 26 25
10 9 9 9 9 10 12 15 17 18 19 21 22 24 26 26 29 28 19 18 26 34 34 34 31 30 33 34 40 36 30 27 24 22 22 19 20 25 26 24 26 26 27 24
7 7 8 9 11 9 12 15 18 20 17 19 21 24 26 25 26 23 9 11 16 25 29 25 26 30 30 36 42 34 31 26 23 20 19 18 20 26 26 24 27 27 26 25
6 7 9 10 10 11 13 15 18 21 20 19 20 22 25 27 27 22 20 5 10 16 18 23 28 32 32 38 40 34 30 26 22 18 17 17 21 25 25 26 27 27 26 25
7 7 8 9 12 14 14 14 17 20 20 20 20 22 22 22 24 25 22 20 10 13 21 26 26 26 30 35 38 32 30 24 21 18 16 17 21 24 25 26 26 27 25 24
5 6 7 9 11 11 14 16 16 17 19 17 17 19 22 22 18 20 19 16 14 11 11 13 17 21 26 32 32 30 25 21 18 16 16 17 21 22 23 24 25 25 24 23
5 5 5 7 8 9 12 15 17 17 17 15 16 15 18 19 18 17 15 14 10 6 8 11 13 15 21 22 22 22 20 18 17 17 18 19 21 22 23 24 24 25 23 23
4 4 6 6 8 9 11 12 14 15 14 16 15 14 13 15 15 13 11 10 10 6 4 7 12 15 16 17 18 17 16 15 15 17 18 19 20 21 22 23 24 24 23 22
5 7 6 7 8 9 10 12 16 16 15 14 14 12 11 13 12 10 8 5 4 3 4 6 8 9 10 9 10 11 13 15 16 17 18 19 20 22 23 23 23 22 22 21

GFSNGP_850_spd_186.txt.gz
Wind_Speed
20 22 21 17 15 20 18 17 17 22 17 24 17 17 14 25 24 13 14 19 16 18 14 23 19 15 11 20 25 24 24 21 22 23 24 24 23 21 21 21 22 21 21 18
19 23 19 18 23 25 22 19 20 18 22 18 26 31 28 21 21 11 15 10 5 8 10 9 7 9 18 15 17 22 26 27 26 24 26 23 23 23 24 25 25 23 22 21
17 19 17 14 25 24 25 25 21 19 18 15 16 16 21 18 20 20 18 10 8 6 6 11 16 17 13 14 15 19 32 31 30 29 28 27 23 23 26 26 26 24 24 23
8 12 10 14 19 18 20 12 12 8 8 9 10 14 12 17 16 18 18 17 12 13 15 15 16 14 16 16 18 18 20 32 27 31 31 33 25 27 29 28 26 26 28 25
4 9 9 12 4 4 6 1 3 3 2 6 11 14 6 10 12 11 12 14 16 17 18 18 20 25 29 38 36 35 35 31 34 34 39 33 30 31 29 28 28 27 26 25
4 4 7 6 9 7 2 6 3 3 3 6 10 6 2 12 12 13 15 16 17 17 18 20 19 19 24 31 37 37 31 31 33 36 36 32 32 34 32 29 29 27 27 26
8 5 4 10 7 2 4 2 3 7 9 10 8 9 20 19 21 20 23 22 19 20 23 21 22 22 26 27 31 36 36 33 32 41 38 40 38 37 35 33 30 28 28 26
6 6 10 13 4 4 5 7 8 10 14 17 20 22 23 25 24 23 24 25 25 27 28 28 23 25 24 29 26 24 36 39 38 43 44 43 41 42 40 36 34 34 32 29
5 2 4 4 1 7 11 14 15 18 22 21 19 21 23 28 32 30 27 31 31 31 33 31 28 27 26 28 31 28 26 34 34 43 48 43 44 46 45 41 39 38 35 33
5 6 7 10 10 14 17 18 19 16 20 24 27 30 31 33 33 32 31 30 30 30 30 33 33 23 24 29 32 30 24 28 30 40 47 43 43 48 49 46 42 41 39 37
8 11 12 16 18 18 17 16 19 22 24 27 29 30 31 33 33 34 34 34 32 33 32 31 32 34 32 25 32 31 25 24 32 34 41 44 45 48 51 48 44 46 43 40
8 14 14 17 18 19 16 19 21 24 25 24 28 32 32 30 30 33 34 36 35 34 34 36 36 32 33 26 28 27 24 21 29 34 39 43 45 44 46 46 45 45 40 37
11 14 16 18 20 19 20 22 22 19 18 23 27 26 25 27 29 34 35 34 33 35 36 36 35 34 35 36 36 33 26 21 24 32 37 41 44 46 47 45 42 40 37 35
12 15 17 21 19 19 17 18 19 18 19 20 22 26 25 27 29 30 31 32 34 31 33 32 31 36 38 39 34 33 29 26 26 30 38 42 46 48 49 47 45 41 36 32
21 20 21 21 18 17 16 18 17 19 21 20 21 22 23 25 28 31 32 32 32 31 30 27 27 35 37 38 33 30 27 27 28 33 41 43 44 48 47 44 42 40 36 32
17 19 17 17 14 14 14 15 16 19 19 18 19 20 23 25 29 31 32 30 31 35 39 36 37 33 26 35 34 30 26 28 24 37 40 44 46 48 45 42 39 37 36 35
20 18 16 10 9 10 12 14 13 15 15 17 19 22 27 29 31 32 33 31 31 33 34 36 38 37 37 31 36 31 23 29 21 36 40 43 46 46 43 39 37 36 36 35
6 2 3 4 7 11 12 11 11 12 15 18 23 25 27 29 32 34 35 37 38 38 39 44 43 40 42 38 35 35 25 29 29 37 39 42 44 41 39 37 36 36 35 34
4 4 4 6 7 8 9 10 11 13 17 18 23 27 28 28 30 33 33 37 39 39 42 38 37 35 35 38 36 37 26 27 30 34 34 34 33 34 34 36 35 35 34 33
5 5 5 5 6 7 9 11 12 16 18 19 23 27 27 28 31 32 32 36 37 40 39 36 27 24 30 36 36 34 27 28 33 32 26 21 25 30 32 32 32 34 34 30
7 7 9 10 9 10 11 11 13 16 18 20 22 24 27 28 29 30 33 38 43 41 34 27 16 13 23 36 34 32 28 30 34 30 25 24 27 28 29 29 33 33 30 27
11 10 8 8 9 9 10 11 11 15 15 17 19 21 22 27 29 29 28 33 41 38 29 21 15 8 23 29 32 28 27 32 31 27 27 26 27 30 28 30 31 31 26 24
8 9 7 7 9 10 6 7 11 12 14 15 17 19 20 23 24 27 33 34 36 33 24 16 9 8 14 19 23 25 29 31 25 24 24 22 26 29 30 29 27 28 26 24
9 7 7 7 8 7 10 8 8 11 12 14 16 18 19 22 23 23 25 26 31 28 22 18 10 3 11 18 24 29 31 26 24 26 22 21 24 24 24 22 25 26 23 23
9 7 7 8 8 9 8 9 10 11 12 15 16 16 17 18 19 22 24 23 25 26 19 13 6 3 13 18 24 26 26 24 26 27 24 20 18 19 19 19 21 21 22 24
9 10 8 6 8 9 8 7 8 11 12 13 13 14 17 16 19 19 21 25 19 21 21 16 10 3 1 5 11 15 18 22 22 22 20 18 16 13 11 15 18 20 22 24
12 11 8 7 6 6 9 11 12 12 13 13 16 13 15 16 18 19 19 21 21 16 15 15 15 14 9 5 4 6 8 11 13 14 15 14 11 10 11 12 15 20 22 21

GFSNGP_850_spd_189.txt.gz
Wind_Speed
6 6 10 5 8 14 11 9 7 14 11 15 2 4 15 16 15 12 3 6 4 6 13 16 12 18 17 19 20 23 25 22 22 25 23 23 23 23 22 23 22 22 21 20
5 9 4 5 10 11 13 13 13 13 14 5 17 22 20 18 19 18 20 19 13 10 6 2 2 8 14 16 12 19 29 29 27 25 21 25 24 23 23 22 22 23 24 23
4 2 4 5 19 21 19 17 8 10 10 7 10 12 14 17 18 16 13 11 10 8 7 7 8 10 13 14 16 15 15 25 31 30 19 18 24 27 28 29 28 28 27 25
2 4 6 7 9 17 23 17 3 3 7 9 9 10 15 15 14 13 14 14 17 19 17 16 16 16 18 18 18 16 14 14 22 32 23 13 27 29 31 33 32 31 32 28
3 6 7 11 3 1 4 4 5 7 6 8 10 5 8 8 7 7 9 14 19 24 20 19 17 19 22 23 23 23 28 27 24 24 31 25 29 40 36 34 34 32 33 31
3 4 9 2 8 8 4 1 5 7 5 2 4 2 2 11 13 14 14 17 19 20 21 20 23 22 21 25 25 24 25 26 22 27 34 32 39 34 44 37 36 34 37 33
5 4 4 4 9 6 5 4 9 7 4 3 3 4 10 17 18 18 19 18 20 25 30 30 29 25 29 32 31 27 27 24 22 28 33 36 42 39 43 43 40 38 39 37
4 5 6 11 9 6 6 13 11 8 6 8 10 11 11 11 17 21 26 31 33 31 31 29 30 29 36 34 35 31 31 28 28 26 33 37 46 43 36 47 45 43 43 42
6 5 5 14 10 8 8 6 2 5 3 6 11 15 21 26 30 33 34 35 36 34 33 31 29 29 33 35 27 30 32 36 31 29 25 37 37 36 41 51 50 49 48 48
5 6 9 14 10 5 2 4 1 2 5 9 14 20 24 27 27 29 30 28 28 29 32 33 35 33 35 32 33 34 28 32 30 29 23 33 41 49 49 53 52 51 52 50
3 5 4 7 5 2 3 3 2 5 8 12 16 11 16 19 23 25 30 32 32 32 32 33 35 38 38 39 35 37 34 33 27 26 20 23 41 42 48 51 41 55 55 51
3 5 6 6 5 6 3 2 6 9 13 10 11 12 18 24 22 22 27 33 35 35 31 33 34 38 38 40 38 36 40 32 34 27 21 23 33 43 47 55 44 53 58 49
4 5 5 6 5 5 6 10 12 12 8 11 12 13 17 22 25 26 25 29 32 32 34 32 33 33 34 35 37 38 42 39 35 34 30 24 31 37 42 43 45 59 55 44
5 6 10 9 7 11 10 9 7 7 5 6 11 14 17 22 23 27 33 32 32 33 34 35 35 32 31 29 28 36 41 40 36 33 32 28 30 35 39 45 44 45 44 43
14 14 13 12 11 12 10 8 6 6 12 17 21 22 17 20 26 30 30 31 30 32 35 35 35 36 33 25 27 29 35 41 39 33 30 28 31 36 44 46 44 47 45 40
16 17 18 20 20 11 7 6 9 12 17 16 14 14 16 19 27 27 29 28 28 34 38 39 38 35 33 32 31 31 32 32 37 33 28 26 32 39 45 46 46 47 50 47
15 12 15 15 12 8 7 10 12 13 13 12 13 14 21 21 24 27 28 31 32 35 37 38 40 38 39 40 40 34 31 32 34 34 29 26 30 39 47 48 49 50 53 48
17 11 9 10 7 6 9 11 12 11 10 11 14 15 18 21 24 27 30 35 36 36 37 39 42 45 42 39 35 33 33 33 31 34 29 30 30 39 48 48 48 50 51 48
13 11 11 11 10 9 9 9 7 8 9 11 14 18 20 21 23 28 31 35 34 36 41 45 44 38 35 32 30 30 31 33 33 34 29 30 31 40 46 46 46 45 47 45
15 13 12 10 8 8 7 6 7 9 9 12 14 18 20 22 24 27 31 33 33 35 43 45 39 32 31 26 25 27 30 31 30 30 26 27 28 37 39 41 42 40 41 37
15 10 6 7 8 8 7 7 5 8 8 11 12 16 19 21 23 26 30 33 35 38 42 39 32 29 29 20 13 21 28 26 26 26 24 24 28 31 34 34 34 30 30 33
14 11 10 9 7 5 5 4 2 4 7 7 11 15 18 22 23 25 23 26 34 36 36 35 30 24 22 7 6 17 22 22 23 22 23 25 26 27 28 21 20 25 27 27
11 10 7 5 5 5 3 3 3 4 6 5 9 16 17 19 21 23 28 30 31 32 30 30 29 19 14 5 5 14 18 19 18 20 22 24 26 20 12 11 17 20 21 21
6 9 8 5 5 4 3 1 2 2 1 4 10 14 16 19 19 19 21 25 28 28 27 23 24 21 8 6 9 11 14 14 17 19 22 22 16 11 11 13 17 21 21 17
10 8 7 9 9 5 4 5 6 8 10 13 13 10 10 13 17 20 21 23 25 23 24 24 17 15 14 9 6 10 13 16 18 18 16 15 15 15 14 15 17 17 18 17
11 11 9 8 7 5 9 10 10 11 15 16 11 11 8 12 17 17 19 21 23 20 20 21 21 16 11 8 3 5 8 13 15 12 15 13 13 14 13 13 13 14 16 18
15 14 11 11 11 13 11 10 11 12 10 7 10 12 9 10 13 15 17 18 20 19 18 17 17 18 17 12 8 5 2 3 5 9 11 12 13 12 10 10 9 11 13 17

GFSNGP_850_spd_192.txt.gz
Wind_Speed
11 3 7 7 9 6 4 4 7 2 5 7 5 6 5 14 18 18 18 17 14 11 8 5 1 2 5 11 15 18 20 20 18 19 21 20 21 23 24 26 26 23 23 23
2 5 1 6 5 6 7 8 8 9 5 7 9 11 12 13 13 17 16 14 11 9 9 9 6 7 10 10 8 8 21 22 24 24 26 25 25 25 25 27 28 25 25 23
5 7 2 5 13 7 5 6 5 7 8 11 6 7 10 14 14 14 11 10 9 9 8 9 11 15 19 21 22 23 18 15 20 25 31 28 25 20 25 30 26 24 24 25
2 7 6 4 7 12 10 9 9 6 7 9 12 16 16 14 15 11 6 4 7 10 11 12 14 16 18 20 20 24 24 19 18 23 33 33 26 28 25 30 30 29 31 31
3 4 2 5 8 7 9 7 3 10 11 14 18 18 12 11 6 4 2 5 10 15 19 21 22 21 20 20 21 22 23 22 21 20 21 32 37 32 31 36 37 36 32 35
3 4 8 6 4 11 7 4 7 11 11 11 14 5 4 12 5 1 3 7 10 14 20 25 26 22 24 27 28 30 28 28 26 24 27 31 35 40 34 35 33 35 36 38
4 3 5 4 6 8 8 7 19 20 18 17 6 5 8 7 6 4 7 11 17 21 23 23 24 21 23 25 27 28 33 33 30 30 25 24 32 45 37 38 45 43 46 44
4 6 10 11 7 8 6 21 22 19 17 13 8 6 5 3 4 9 14 17 18 22 24 23 23 25 27 27 30 31 30 31 33 31 28 25 25 36 49 49 58 54 47 46
8 5 3 16 7 23 26 24 16 16 12 13 11 7 3 7 9 10 12 15 15 14 17 21 23 24 28 32 32 34 34 33 31 27 28 28 27 31 37 44 51 46 46 50
4 3 5 20 23 21 19 15 12 14 14 9 5 5 6 6 8 12 15 19 22 24 26 29 30 31 33 33 32 34 38 36 31 31 33 30 27 28 33 44 48 53 49 54
1 2 8 14 19 18 14 15 17 13 9 6 6 8 9 10 12 17 22 24 25 27 29 32 33 34 34 34 33 34 37 40 39 35 33 34 31 29 29 37 45 52 47 49
4 9 6 12 15 11 17 18 13 9 7 8 10 11 12 13 17 21 24 28 31 31 32 36 37 37 35 34 29 30 32 36 41 39 35 35 32 31 26 28 36 52 55 51
4 11 9 9 12 15 17 12 8 8 10 13 10 9 12 15 17 21 25 29 31 32 33 33 34 34 33 33 31 31 30 35 38 39 38 36 33 30 33 29 26 39 49 48
9 9 8 15 15 14 10 8 10 13 13 11 9 9 11 15 19 23 25 26 28 30 32 33 33 33 31 32 31 31 32 29 30 33 34 38 37 33 30 31 33 29 42 49
5 6 7 7 11 13 13 16 17 15 13 11 11 13 16 20 23 21 21 25 27 27 30 29 31 35 34 32 31 29 28 34 33 30 32 34 38 33 29 29 32 35 35 42
13 14 16 16 14 13 18 19 18 15 12 10 13 16 17 19 18 20 21 23 23 27 32 35 36 35 33 36 38 39 39 36 34 35 33 32 33 33 30 29 32 36 40 41
13 15 15 17 15 14 20 18 14 11 10 11 13 13 13 14 17 20 21 22 26 29 32 33 35 36 39 42 43 40 39 37 36 34 34 33 29 32 32 29 34 36 43 43
17 16 16 14 17 21 19 15 11 9 10 11 10 10 10 13 19 21 23 25 28 30 31 32 34 41 42 40 38 34 34 34 36 33 35 34 32 31 32 30 32 36 42 45
24 17 18 15 17 19 16 12 9 9 9 8 7 8 12 16 18 21 22 24 28 30 33 36 39 39 39 34 31 33 33 32 31 30 34 32 28 29 28 31 34 35 40 43
23 21 19 19 16 13 12 10 10 9 7 7 9 10 12 13 16 19 21 25 25 28 34 37 37 37 35 35 32 29 25 27 26 27 32 30 29 28 28 31 32 34 40 41
22 20 21 16 13 10 9 8 6 5 5 5 4 5 10 14 16 18 22 24 27 32 32 36 33 34 34 32 25 19 16 14 18 23 23 23 24 23 26 25 29 36 38 38
21 23 16 12 11 9 9 7 7 7 6 5 4 8 11 13 14 17 17 21 27 31 31 33 31 30 28 27 21 13 8 6 12 14 15 15 17 18 18 22 28 32 34 36
20 15 13 12 8 7 9 10 10 9 7 7 10 10 10 12 13 17 21 22 25 29 27 29 29 26 23 19 19 14 8 6 8 9 12 14 13 15 17 21 25 27 28 31
13 13 11 9 8 9 11 11 10 11 11 12 12 11 11 13 14 14 17 19 21 24 23 25 27 23 20 14 14 14 12 8 8 10 11 11 14 15 15 17 18 21 20 19
11 12 12 13 13 12 10 9 11 12 12 11 11 14 14 11 11 15 16 17 20 20 21 22 24 23 18 16 14 11 11 10 10 8 7 10 12 14 18 21 17 13 11 13
14 15 15 13 13 13 11 13 15 12 11 13 14 12 5 7 8 11 14 15 17 16 19 20 21 22 21 16 13 11 10 8 4 3 5 9 11 13 15 13 10 9 8 9
14 14 14 15 16 16 15 17 16 13 13 12 9 7 2 5 8 9 11 13 15 14 16 18 18 17 19 19 15 12 9 6 4 1 5 6 7 8 8 8 7 8 9 10

GFSNGP_850_spd_195.txt.gz
Wind_Speed
18 6 5 4 8 20 21 28 15 11 15 15 8 7 8 16 16 16 16 16 15 15 14 13 10 6 4 7 10 12 15 17 20 22 24 24 23 24 20 20 21 22 26 27
20 15 9 9 6 11 23 21 6 9 10 2 8 12 12 13 16 17 17 15 13 11 11 10 7 6 5 5 7 10 14 14 14 18 23 29 28 28 25 24 24 28 28 27
15 11 6 8 22 13 5 3 9 11 4 9 5 6 11 18 18 18 15 12 8 7 6 6 7 7 7 8 10 11 13 15 18 18 20 24 32 30 30 28 28 27 27 30
3 5 11 9 9 16 15 10 1 3 3 9 6 13 15 17 18 17 15 10 6 4 5 7 8 10 12 13 14 15 16 16 15 18 22 24 26 27 33 28 31 33 36 34
4 6 4 5 6 14 15 15 11 8 4 8 13 10 6 15 17 17 13 7 2 4 7 11 15 17 18 19 18 19 21 23 21 21 25 25 26 28 27 37 34 37 37 36
4 5 10 7 10 17 8 8 16 19 17 16 21 6 6 26 20 14 7 4 4 6 11 15 17 17 19 20 20 21 19 20 23 26 27 29 30 29 31 37 37 41 46 42
6 4 6 5 5 21 10 7 24 32 29 32 17 7 17 29 20 12 9 6 5 7 10 11 12 13 17 19 22 22 23 24 26 27 27 27 28 30 35 34 38 50 49 46
4 5 10 9 7 11 4 4 22 26 29 28 15 18 27 22 17 14 9 8 8 9 11 12 13 15 19 22 23 25 27 30 31 30 30 29 26 30 31 31 38 40 55 47
9 6 2 20 2 10 16 23 19 28 30 29 22 19 21 18 14 11 9 7 7 11 16 19 21 22 25 27 27 29 30 32 32 31 31 32 31 27 29 30 33 35 40 47
3 5 5 15 12 22 23 28 27 27 26 24 23 20 17 14 10 9 7 8 12 17 21 25 23 21 20 23 25 28 32 34 34 35 35 33 33 31 33 33 35 37 36 39
2 3 8 9 21 26 24 25 26 25 25 23 20 16 11 9 9 8 9 12 15 18 22 25 26 27 27 26 24 27 31 32 32 31 33 31 34 37 36 37 33 36 37 35
4 9 6 15 25 24 24 25 25 24 20 16 13 11 11 11 9 10 11 14 17 22 26 26 25 28 28 27 26 27 31 32 31 32 33 35 33 34 38 37 34 31 31 34
4 22 12 23 21 20 22 24 22 19 15 14 14 13 11 10 11 13 15 18 22 25 23 24 27 29 29 29 29 28 32 34 35 34 36 34 35 36 38 36 35 29 30 30
17 20 13 21 18 21 22 21 18 14 12 10 10 12 13 14 14 16 19 22 24 24 23 24 28 31 30 31 32 32 33 34 34 35 35 36 36 35 36 38 38 32 28 28
10 5 13 12 17 22 20 19 17 17 17 19 17 16 15 15 17 19 21 20 20 22 24 28 30 32 31 33 33 35 37 38 40 39 38 36 38 36 35 36 37 30 30 24
8 9 11 15 17 22 21 22 20 22 22 21 19 16 15 16 18 19 18 17 20 22 25 27 30 31 32 33 36 41 43 42 41 41 39 35 35 38 38 36 35 31 31 28
9 10 11 16 20 22 25 23 23 24 24 20 16 14 15 15 17 14 16 18 19 22 24 26 30 31 32 36 39 40 39 40 39 39 38 36 36 33 36 36 34 33 31 27
18 19 15 14 14 20 23 27 25 22 20 15 13 13 13 12 11 14 19 17 19 22 25 26 27 32 34 35 33 36 38 40 40 39 38 36 34 34 35 35 33 32 29 25
25 21 15 9 12 15 20 25 23 19 15 13 13 12 11 9 12 16 16 18 21 24 26 25 30 32 34 31 31 33 36 38 37 37 36 34 32 32 35 35 32 31 27 24
21 23 18 15 16 20 22 20 18 16 14 13 12 10 8 7 9 13 14 17 20 21 24 27 30 30 31 30 29 31 31 31 30 27 27 28 27 27 31 31 26 27 26 27
20 21 20 21 22 20 16 14 13 13 12 11 9 6 5 6 11 13 16 18 19 20 24 28 28 29 31 29 27 27 24 24 23 15 15 17 17 22 25 22 24 26 26 28
14 19 21 20 17 15 14 13 11 12 12 10 7 5 6 8 12 13 14 16 19 22 25 28 25 27 29 26 24 23 19 18 19 17 13 13 17 20 20 20 23 25 25 25
17 16 15 15 11 10 13 13 13 13 12 9 7 8 11 13 14 16 17 17 21 21 23 25 23 25 26 23 20 19 16 14 14 15 14 13 14 15 15 14 15 16 19 25
14 16 14 11 10 12 14 14 14 13 10 10 11 13 15 16 16 17 16 15 15 19 20 22 22 23 24 22 19 17 15 13 13 14 15 12 9 8 8 8 8 11 16 20
15 14 14 15 16 13 12 14 14 12 13 13 13 14 16 19 18 13 11 12 15 17 18 20 20 20 22 21 19 16 11 9 9 8 9 9 8 7 5 5 5 5 9 16
15 15 16 15 13 11 14 15 12 12 12 13 14 15 16 14 12 8 8 11 14 14 15 18 19 19 19 21 19 17 15 13 11 10 9 7 5 3 3 2 5 8 12 15
14 14 15 16 16 15 17 16 14 16 16 14 15 15 12 12 7 4 7 10 11 12 13 15 16 17 17 18 19 18 16 14 12 9 7 6 5 4 4 5 7 9 11 14

GFSNGP_850_spd_201.txt.gz
Wind_Speed
15 2 9 12 18 21 20 25 13 26 20 24 12 9 12 16 18 19 20 20 22 23 22 19 16 14 13 12 11 9 7 4 2 4 6 9 12 14 15 16 17 18 18 18
12 12 9 4 11 25 26 24 22 28 30 6 3 7 12 20 22 21 22 24 24 23 21 20 19 18 15 13 9 6 2 2 4 6 10 13 17 18 18 20 22 23 23 24
8 6 6 4 22 19 14 20 18 22 26 6 8 13 21 24 24 25 26 27 23 20 20 20 16 14 11 8 5 3 1 3 6 10 12 15 17 18 19 20 22 23 24 25
5 4 14 18 9 18 21 21 20 20 23 13 17 26 26 30 38 33 32 31 31 26 21 16 13 9 7 5 5 5 7 9 12 13 14 15 16 18 20 22 24 25 25 25
6 10 17 14 9 9 14 25 20 25 24 16 14 15 8 23 32 36 35 32 30 25 18 14 10 8 5 2 3 7 13 15 14 14 14 15 16 18 18 21 23 25 27 28
4 8 10 8 7 14 8 20 16 19 22 14 19 11 9 33 31 34 33 30 26 22 18 16 14 12 11 12 13 12 12 12 14 17 19 21 23 24 23 24 26 26 27 26
10 7 6 7 4 13 11 5 12 25 22 22 16 22 18 37 33 33 29 20 14 15 18 15 10 7 8 9 10 13 16 17 20 22 24 26 27 28 28 29 30 30 31 30
6 8 15 14 12 18 7 4 16 16 22 32 21 15 29 38 36 36 31 25 21 17 12 10 11 12 11 12 15 18 20 22 23 23 24 26 29 30 32 33 34 36 35 34
10 7 2 23 11 19 11 9 12 22 24 26 25 24 35 38 37 34 26 22 20 18 17 15 14 13 12 13 17 21 22 23 24 27 28 28 28 31 33 34 35 37 38 40
4 7 6 16 11 12 11 9 9 14 23 28 30 24 27 29 30 30 27 25 22 19 17 14 14 14 14 17 20 22 23 24 26 28 29 29 29 29 31 32 33 35 35 36
4 2 2 12 18 18 12 11 10 11 18 25 28 25 25 28 33 31 28 24 19 17 15 14 15 17 17 19 20 22 24 26 27 29 30 30 30 30 31 31 30 32 34 34
8 6 3 2 13 16 15 15 15 15 17 19 23 28 30 33 30 27 23 19 16 14 14 15 17 18 20 21 21 23 25 28 29 30 31 30 30 32 31 32 32 32 33 33
3 6 9 11 17 18 21 18 17 19 25 30 31 31 29 27 23 20 18 15 14 14 14 15 18 21 21 22 23 24 28 30 30 29 29 32 33 34 38 38 36 33 32 31
8 8 5 11 9 16 18 19 20 25 28 26 28 24 22 20 19 17 16 15 15 14 16 18 21 22 21 23 24 25 27 28 27 29 31 32 33 35 35 38 41 40 33 30
7 10 8 11 11 17 20 25 27 27 26 25 23 21 19 17 17 17 16 16 15 17 18 19 20 20 20 22 23 25 26 28 29 30 31 32 33 34 36 37 40 41 38 33
8 8 11 17 20 18 20 20 22 23 22 16 19 18 17 17 17 18 16 15 15 16 16 18 19 17 19 21 23 24 26 27 29 29 30 32 32 34 35 37 39 38 36 35
5 4 7 7 13 18 19 17 21 24 27 27 25 22 22 22 20 18 15 13 14 13 15 16 17 18 20 22 23 25 26 27 29 29 30 29 32 32 34 36 39 39 37 34
9 8 7 9 13 17 21 24 27 29 29 26 26 27 25 23 18 15 12 12 11 12 12 15 17 19 20 21 21 23 26 28 29 30 29 30 31 29 33 35 35 33 32 30
14 16 13 11 12 14 17 22 25 26 26 26 26 26 22 17 16 12 11 10 9 10 12 14 17 19 21 21 19 22 26 28 29 28 27 29 29 28 29 30 26 26 26 27
8 13 17 16 13 14 17 19 21 22 23 23 23 22 21 17 12 11 10 9 8 11 12 14 18 23 19 20 19 23 26 27 27 27 26 27 28 28 28 26 26 25 22 23
7 9 11 15 20 17 15 17 19 20 22 22 22 21 16 13 12 11 9 8 9 12 14 17 18 17 19 21 21 24 26 24 25 27 27 26 27 27 28 27 25 23 23 18
7 7 7 9 13 16 14 11 15 19 21 21 20 18 15 12 11 9 8 9 11 16 14 14 15 17 21 19 20 23 24 24 25 25 25 26 27 27 29 29 27 24 21 19
7 7 6 6 9 14 16 14 16 17 18 17 16 15 13 11 10 8 8 10 14 12 11 13 15 16 19 18 19 22 23 24 23 23 22 23 24 23 22 20 18 17 17 17
7 6 6 8 11 13 16 17 16 16 14 13 13 13 14 13 10 8 10 13 11 7 10 12 13 14 17 17 18 20 21 22 22 21 20 19 18 17 16 15 14 13 14 14
6 6 8 11 13 13 12 13 15 15 15 15 15 15 13 10 9 9 12 10 7 7 9 10 12 12 15 15 16 18 19 20 20 19 18 18 17 16 15 14 13 13 10 7
11 11 12 14 14 13 13 15 17 16 16 17 17 15 14 12 10 11 10 7 6 5 7 9 10 11 13 15 14 15 17 17 18 18 17 17 17 16 15 14 15 16 15 13
13 13 14 16 17 17 16 16 16 17 18 18 17 17 15 12 11 10 7 7 6 5 5 7 8 10 11 12 14 14 14 16 16 16 17 18 17 16 16 16 17 16 16 15